Weather History for KFSO - December, 2012

Change the Weather History Date:

Sunday, December 2, 2012

  Actual Average (KPBG) Record (KPBG)
Temperature  
Mean Temperature 40 °F 30 °F  
Max Temperature 46 °F 38 °F 59 °F (1970)
Min Temperature 34 °F 22 °F -4 °F (1972)
Degree Days  
Heating Degree Days 25 35  
Month to date heating degree days 70  
Since 1 July heating degree days 1704  
Cooling Degree Days 0 0  
Month to date cooling degree days 0  
Year to date cooling degree days 346  
Moisture  
Dew Point 37 °F    
Average Humidity 81    
Maximum Humidity 93    
Minimum Humidity 70    
Precipitation  
Precipitation 0.00 in - 0.30 in (1979)
Month to date precipitation  
Year to date precipitation  
Sea Level Pressure  
Sea Level Pressure 30.05 in    
Wind  
Wind Speed 13 mph (South)    
Max Wind Speed 21 mph    
Max Gust Speed 32 mph    
Visibility 8 miles    
Events Rain    
T = Trace of Precipitation, MM = Missing Value Source: NWS Daily Summary

Daily Weather History Graph

Daily Weather History Graph

Search for Another Location

Airport or City:

Trip Planner

Search our weather history database for the weather conditions in past years. The results will help you decide how hot, cold, wet, or windy it might be!

Date:

Astronomy

Dec. 02, 2012 Rise Set
Actual Time 7:11 AM EST 4:12 PM EST
Civil Twilight 6:38 AM EST 4:45 PM EST
Nautical Twilight 6:01 AM EST 5:21 PM EST
Astronomical Twilight 5:26 AM EST 5:57 PM EST
Moon 8:01 PM EST (12/2) 9:56 AM EST (12/2)
Length of Visible Light 10h 06m
Length of Day
9h 00m
Waning Gibbous, 86% of the Moon is Illuminated
Dec 2
Waning Gibbous
Dec 6
Last Quarter
Dec 13
New
Dec 20
First Quarter
Dec 28
Full

Hourly Weather History & Observations

Time (EST) Temp. Windchill Dew Point Humidity Pressure Visibility Wind Dir Wind Speed Gust Speed Precip Events Conditions
12:15 AM 34.3 °F 27.7 °F 28.2 °F 78% 30.32 in 10.0 mi South 8.1 mph - N/A   Overcast
12:35 AM 34.3 °F 27.0 °F 28.2 °F 78% 30.31 in 10.0 mi South 9.2 mph - N/A   Overcast
1:15 AM 34.3 °F 25.0 °F 28.0 °F 78% 30.29 in 10.0 mi South 13.8 mph 25.3 mph N/A   Overcast
1:35 AM 34.3 °F 25.5 °F 28.2 °F 78% 30.28 in 10.0 mi South 12.7 mph 23.0 mph N/A   Overcast
1:55 AM 34.3 °F 25.0 °F 28.4 °F 79% 30.28 in 10.0 mi South 13.8 mph 23.0 mph N/A   Overcast
2:15 AM 35.4 °F 26.4 °F 29.5 °F 79% 30.28 in 10.0 mi South 13.8 mph 20.7 mph N/A   Overcast
2:35 AM 36.3 °F 28.0 °F 30.2 °F 78% 30.27 in 10.0 mi South 12.7 mph 25.3 mph N/A   Overcast
2:55 AM 36.9 °F 28.2 °F 30.6 °F 78% 30.27 in 10.0 mi South 13.8 mph 20.7 mph N/A   Overcast
3:15 AM 36.9 °F 28.7 °F 30.6 °F 78% 30.26 in 10.0 mi South 12.7 mph 21.9 mph N/A   Overcast
3:35 AM 36.9 °F 27.5 °F 30.7 °F 79% 30.25 in 10.0 mi South 16.1 mph 24.2 mph N/A   Overcast
3:55 AM 36.9 °F 27.8 °F 30.7 °F 79% 30.24 in 10.0 mi South 15.0 mph 23.0 mph N/A   Overcast
4:15 AM 36.9 °F 27.8 °F 30.7 °F 79% 30.23 in 10.0 mi South 15.0 mph 23.0 mph N/A   Overcast
4:35 AM 37.8 °F 29.4 °F 31.6 °F 79% 30.21 in 10.0 mi South 13.8 mph 27.6 mph N/A   Overcast
4:55 AM 38.3 °F 29.0 °F 31.8 °F 77% 30.21 in 10.0 mi South 17.3 mph 28.8 mph N/A   Overcast
5:15 AM 39.2 °F 30.5 °F 32.2 °F 76% 30.20 in 10.0 mi South 16.1 mph 28.8 mph N/A   Overcast
5:35 AM 39.4 °F 31.1 °F 32.9 °F 78% 30.19 in 10.0 mi South 15.0 mph 25.3 mph N/A   Overcast
5:55 AM 39.4 °F 31.4 °F 32.9 °F 78% 30.19 in 10.0 mi South 13.8 mph 24.2 mph N/A   Overcast
6:15 AM 39.9 °F 32.1 °F 33.6 °F 78% 30.18 in 10.0 mi South 13.8 mph 25.3 mph N/A   Overcast
6:35 AM 40.3 °F 33.4 °F 33.8 °F 78% 30.19 in 10.0 mi SSW 11.5 mph 23.0 mph N/A   Overcast
6:55 AM 40.5 °F 32.5 °F 34.3 °F 79% 30.18 in 10.0 mi South 15.0 mph 21.9 mph N/A   Overcast
7:15 AM 40.6 °F 31.4 °F 34.7 °F 79% 30.17 in 10.0 mi South 19.6 mph 26.5 mph N/A   Overcast
7:35 AM 41.7 °F 33.4 °F 35.6 °F 79% 30.16 in 10.0 mi South 17.3 mph 27.6 mph N/A   Overcast
7:55 AM 42.4 °F 35.7 °F 36.3 °F 79% 30.14 in 10.0 mi South 12.7 mph 32.2 mph N/A   Overcast
8:15 AM 44.2 °F 37.6 °F 37.4 °F 77% 30.15 in 10.0 mi South 13.8 mph 27.6 mph N/A   Overcast
8:35 AM 44.2 °F 37.0 °F 37.4 °F 77% 30.14 in 10.0 mi South 16.1 mph 26.5 mph N/A   Overcast
8:55 AM 44.2 °F 37.3 °F 37.6 °F 77% 30.14 in 10.0 mi South 15.0 mph 26.5 mph N/A   Overcast
9:15 AM 44.2 °F 36.7 °F 37.4 °F 77% 30.13 in 10.0 mi South 17.3 mph 29.9 mph N/A   Overcast
9:35 AM 45.7 °F 40.2 °F 38.5 °F 76% 30.12 in 10.0 mi South 11.5 mph 26.5 mph N/A   Overcast
9:55 AM 46.8 °F - 39.2 °F 75% 30.11 in 10.0 mi South 15.0 mph 27.6 mph N/A   Overcast
10:15 AM 46.8 °F - 39.2 °F 75% 30.10 in 10.0 mi South 16.1 mph 25.3 mph N/A   Scattered Clouds
10:35 AM 46.8 °F - 39.2 °F 75% 30.09 in 10.0 mi South 15.0 mph 25.3 mph N/A   Scattered Clouds
10:55 AM 46.8 °F - 39.0 °F 74% 30.08 in 10.0 mi South 15.0 mph 28.8 mph N/A   Mostly Cloudy
11:15 AM 46.8 °F - 38.3 °F 72% 30.07 in 10.0 mi South 15.0 mph 27.6 mph N/A   Overcast
11:35 AM 46.8 °F - 38.5 °F 73% 30.05 in 10.0 mi South 12.7 mph 21.9 mph N/A   Mostly Cloudy
11:55 AM 46.8 °F - 38.5 °F 73% 30.04 in 10.0 mi South 12.7 mph 26.5 mph N/A   Overcast
12:15 PM 46.8 °F - 38.3 °F 72% 30.03 in 10.0 mi South 17.3 mph 23.0 mph N/A   Overcast
12:35 PM 46.8 °F - 37.8 °F 71% 30.01 in 10.0 mi South 11.5 mph 20.7 mph N/A   Overcast
12:55 PM 46.8 °F - 37.8 °F 71% 30.00 in 10.0 mi South 12.7 mph 19.6 mph N/A   Overcast
1:15 PM 46.8 °F - 37.6 °F 70% 29.98 in 10.0 mi South 13.8 mph 23.0 mph N/A   Overcast
1:35 PM 46.8 °F - 37.6 °F 70% 29.96 in 10.0 mi South 15.0 mph 23.0 mph N/A   Overcast
1:55 PM 46.8 °F - 39.9 °F 77% 29.94 in 7.0 mi South 20.7 mph 27.6 mph N/A Rain Light Rain
2:15 PM 46.8 °F - 39.9 °F 77% 29.92 in 10.0 mi South 15.0 mph 24.2 mph N/A Rain Light Rain
2:35 PM 46.8 °F - 38.5 °F 73% 29.91 in 10.0 mi South 15.0 mph 29.9 mph N/A   Overcast
2:55 PM 46.8 °F - 37.9 °F 71% 29.91 in 10.0 mi South 15.0 mph 21.9 mph N/A   Overcast
3:15 PM 46.8 °F - 37.8 °F 71% 29.90 in 10.0 mi SSW 13.8 mph 27.6 mph N/A   Overcast
3:35 PM 46.8 °F - 38.5 °F 73% 29.90 in 10.0 mi South 10.4 mph 21.9 mph N/A   Drizzle
3:55 PM 46.8 °F - 40.1 °F 78% 29.90 in 5.0 mi South 13.8 mph 21.9 mph N/A Rain Light Rain
4:15 PM 46.8 °F - 41.9 °F 83% 29.89 in 4.0 mi South 11.5 mph 23.0 mph N/A Rain Light Rain
4:35 PM 44.8 °F 38.7 °F 40.8 °F 86% 29.89 in 4.0 mi South 12.7 mph 19.6 mph N/A Rain Rain
4:55 PM 44.2 °F 38.4 °F 40.8 °F 88% 29.89 in 3.0 mi South 11.5 mph 25.3 mph N/A Rain Rain
5:15 PM 44.2 °F 38.8 °F 41.4 °F 90% 29.89 in 3.0 mi South 10.4 mph 18.4 mph N/A Rain Rain
5:35 PM 44.2 °F 38.8 °F 41.4 °F 90% 29.89 in 3.0 mi South 10.4 mph 19.6 mph N/A Rain Rain
5:55 PM 44.2 °F 38.8 °F 41.5 °F 90% 29.89 in 3.0 mi South 10.4 mph 16.1 mph N/A Rain Rain
6:15 PM 44.2 °F 38.8 °F 41.5 °F 90% 29.88 in 5.0 mi South 10.4 mph 18.4 mph N/A Rain Rain
6:35 PM 44.2 °F 38.0 °F 41.5 °F 90% 29.88 in 4.0 mi South 12.7 mph 19.6 mph N/A Rain Rain
6:55 PM 44.2 °F 38.4 °F 41.7 °F 91% 29.88 in 4.0 mi South 11.5 mph 17.3 mph N/A Rain Rain
7:15 PM 44.2 °F 38.4 °F 41.9 °F 91% 29.89 in 4.0 mi South 11.5 mph 19.6 mph N/A Rain Rain
7:35 PM 44.2 °F 39.7 °F 41.9 °F 91% 29.89 in 4.0 mi South 8.1 mph 18.4 mph N/A Rain Rain
7:55 PM 44.2 °F 38.8 °F 41.9 °F 91% 29.88 in 5.0 mi South 10.4 mph 18.4 mph N/A Rain Rain
8:15 PM 44.2 °F 38.4 °F 41.9 °F 91% 29.89 in 5.0 mi South 11.5 mph 18.4 mph N/A Rain Light Rain
8:35 PM 44.2 °F 38.0 °F 41.9 °F 91% 29.89 in 3.0 mi South 12.7 mph 19.6 mph N/A Rain Rain
8:55 PM 44.2 °F 39.7 °F 42.1 °F 92% 29.89 in 5.0 mi South 8.1 mph - N/A Rain Light Rain
9:15 PM 44.2 °F 38.4 °F 42.1 °F 92% 29.90 in 4.0 mi South 11.5 mph 17.3 mph N/A Rain Light Rain
9:35 PM 44.2 °F 39.7 °F 42.1 °F 92% 29.90 in 7.0 mi SSW 8.1 mph - N/A   Overcast
9:55 PM 44.2 °F 39.7 °F 41.9 °F 91% 29.90 in 7.0 mi South 8.1 mph 18.4 mph N/A   Overcast
10:15 PM 44.2 °F 38.8 °F 41.9 °F 91% 29.90 in 7.0 mi SSW 10.4 mph 16.1 mph N/A   Overcast
10:35 PM 44.2 °F 39.7 °F 42.1 °F 92% 29.90 in 7.0 mi SSW 8.1 mph - N/A   Light Drizzle
10:55 PM 44.2 °F 38.8 °F 42.1 °F 92% 29.89 in 5.0 mi SSW 10.4 mph - N/A Rain Light Rain
11:15 PM 44.2 °F 39.7 °F 42.1 °F 92% 29.90 in 4.0 mi SSW 8.1 mph - N/A   Light Drizzle
11:35 PM 44.2 °F 39.7 °F 42.3 °F 93% 29.89 in 7.0 mi South 8.1 mph - N/A   Overcast
11:55 PM 44.2 °F 41.0 °F 42.3 °F 93% 29.89 in 5.0 mi South 5.8 mph - N/A   Drizzle